Wind_Speed
10 10 10 10 10 10 10 10 10 9 9 9 9 10 10 10 11 12 13 13 13 13 14 14 14 15 15 15 15 15 15 15 16 16 16 16 17 18 18 18 19 19 19 19
11 11 11 11 10 10 9 9 9 9 9 10 11 11 11 12 12 13 14 14 15 15 15 15 15 15 15 15 15 15 15 15 16 16 17 17 18 18 18 19 19 19 19 20
13 12 13 13 11 10 10 9 9 9 9 10 11 11 12 13 13 14 15 15 15 16 16 15 15 15 15 15 15 16 16 16 16 17 17 18 18 19 19 19 19 19 20 20
14 14 15 12 12 11 11 10 9 9 10 11 12 12 12 12 13 14 15 15 15 16 16 16 16 15 15 15 16 16 16 17 17 17 18 18 18 19 19 20 20 21 21 21
16 16 15 13 12 12 12 11 12 11 11 12 12 12 12 12 13 14 15 16 16 17 17 17 16 16 16 17 16 17 17 17 17 18 18 19 19 19 20 21 21 22 22 22
18 17 16 13 13 14 14 13 13 13 13 13 13 13 13 13 13 14 15 17 17 17 17 17 17 17 17 18 18 17 17 17 18 19 19 20 20 21 21 22 22 23 23 23
19 18 17 15 15 15 15 13 14 15 15 15 15 14 14 14 14 15 16 16 17 17 18 17 18 19 19 18 18 17 17 18 18 19 19 20 21 22 22 23 23 23 23 23
21 20 18 17 17 17 15 15 15 15 15 15 15 15 15 15 15 15 15 16 16 17 18 18 18 19 20 19 19 19 18 19 19 19 20 21 22 22 23 23 23 24 24 25
22 21 20 18 18 18 18 17 16 16 16 16 16 16 17 17 16 15 14 15 15 16 17 18 18 19 19 20 20 20 20 20 20 21 22 23 23 23 24 24 24 25 26 26
24 22 21 20 20 20 19 19 18 18 18 17 17 17 18 18 18 17 16 15 16 17 17 18 19 19 19 19 19 20 21 22 22 23 23 23 24 24 25 26 26 27 27 28
25 24 23 22 21 21 21 21 20 20 20 19 19 18 18 18 18 18 18 18 18 18 19 19 19 20 20 20 21 22 23 23 23 23 24 24 25 26 27 27 28 29 29 30
26 24 24 22 22 22 22 22 21 22 21 21 20 20 20 20 20 20 20 20 20 20 20 21 22 22 23 23 22 23 24 24 25 25 25 26 27 28 28 29 30 31 31 32
26 25 24 23 23 23 23 23 23 23 23 22 22 22 22 22 22 23 23 22 23 23 23 23 23 24 24 24 23 23 24 24 25 26 28 29 29 29 30 31 32 33 33 34
27 26 25 24 24 25 24 24 24 25 25 24 24 24 24 24 24 24 24 25 25 25 25 25 25 25 25 25 25 25 26 26 27 28 29 30 31 31 32 33 34 34 35 36
28 27 26 25 25 25 25 25 25 25 26 26 25 25 25 25 25 25 25 26 26 26 26 26 26 26 26 26 26 27 28 28 29 30 31 32 32 33 34 35 36 36 37 38
28 28 28 27 27 27 26 25 26 26 27 27 27 28 27 27 26 27 27 27 28 28 28 28 28 28 28 28 28 29 29 30 31 32 33 34 34 35 36 36 37 38 39 39
29 29 29 29 28 28 28 27 27 27 28 28 28 28 28 29 29 29 29 29 29 29 29 29 30 30 30 30 30 30 31 32 33 34 35 36 36 37 37 38 38 39 40 41
29 29 29 29 29 29 29 29 28 28 28 29 29 29 29 30 30 30 30 30 30 31 31 31 31 31 32 32 32 33 33 33 34 35 36 36 37 37 38 39 40 40 41 41
30 30 30 30 29 29 29 29 29 29 29 30 30 30 30 31 31 31 32 32 32 32 32 32 32 33 33 33 34 34 34 34 35 36 37 37 38 38 39 40 41 41 41 42
31 30 30 30 30 29 29 29 30 30 30 31 31 31 31 31 32 32 32 32 33 33 34 34 34 34 34 34 34 35 35 36 36 37 38 39 39 40 41 41 42 42 43 43
30 30 29 29 29 30 30 30 31 31 32 32 33 33 32 32 33 33 33 33 33 34 34 34 34 34 35 35 35 36 37 37 38 39 40 41 41 41 42 42 42 43 43 43
30 30 30 30 30 30 31 31 31 32 32 33 33 33 33 34 34 34 33 33 32 33 33 34 34 35 36 36 37 38 38 39 40 40 41 41 41 41 41 42 43 43 43 42
30 30 30 31 31 31 31 31 32 32 33 33 34 34 34 35 34 34 33 32 32 32 33 33 34 35 36 36 37 38 39 40 40 40 41 41 41 41 41 42 42 42 42 42
32 31 31 32 32 32 32 32 33 34 34 34 34 34 34 34 34 34 34 33 33 34 34 35 35 35 36 37 37 38 39 40 40 40 40 40 40 41 41 41 41 41 41 42
32 32 32 32 32 32 32 32 33 33 33 33 33 33 34 34 34 34 34 33 34 34 35 35 36 36 36 37 38 39 39 40 40 40 40 40 41 41 41 41 41 41 41 41
32 32 31 31 31 31 31 31 31 30 31 31 31 32 33 33 33 34 35 35 35 35 36 36 36 36 37 37 38 39 39 40 40 40 40 40 40 41 41 41 41 41 41 42
32 32 31 31 31 31 31 30 30 30 30 30 31 31 31 31 32 32 33 33 34 35 35 36 36 36 37 38 38 38 39 39 40 40 39 40 40 40 41 41 41 41 42 42
Wind_Direction
243 244 244 243 246 249 250 250 252 249 246 238 244 246 242 239 244 249 251 251 249 249 252 252 252 252 251 251 256 259 262 264 264 267 270 274 277 279 280 282 282 284 285 286
242 241 246 247 248 246 247 248 250 247 246 246 247 249 246 245 248 251 252 253 254 255 255 254 253 255 255 256 259 261 264 266 266 268 271 275 278 279 281 283 284 285 285 286
242 243 247 249 249 248 247 249 250 245 241 246 250 252 250 250 250 251 251 256 257 254 254 254 255 255 257 259 261 263 265 266 269 271 274 277 279 281 282 283 285 287 287 288
244 246 249 252 248 249 251 254 260 260 252 252 255 255 253 252 252 252 254 257 256 254 252 254 255 254 256 260 262 265 268 269 271 274 276 278 281 282 282 283 285 287 288 287
245 249 251 250 248 249 252 254 260 265 263 260 261 260 257 256 256 256 255 254 254 255 253 253 254 257 260 263 265 267 269 270 271 275 277 279 281 282 283 284 286 286 288 289
247 251 252 249 249 250 251 252 257 263 265 262 261 261 261 263 265 264 259 256 255 255 253 253 257 260 261 265 267 269 270 270 272 276 278 280 282 283 284 286 287 287 287 290
248 251 252 251 251 253 253 257 260 263 265 265 264 265 264 265 267 268 265 261 257 255 253 256 259 260 264 269 269 270 271 272 275 279 280 281 282 283 285 286 288 288 289 291
249 251 250 251 252 254 257 258 260 262 264 265 266 267 267 268 270 272 268 263 261 257 256 259 262 263 265 268 268 269 272 274 277 279 281 282 283 284 286 287 287 289 290 291
248 250 251 252 253 254 255 258 260 261 264 266 267 267 266 265 268 268 268 269 268 264 263 262 263 265 268 269 269 270 273 275 277 280 282 283 283 284 286 288 289 291 292 292
247 247 249 252 254 254 254 256 258 260 263 266 268 267 267 265 264 266 269 269 270 269 267 265 264 266 268 269 271 273 274 276 278 280 281 282 283 284 286 288 289 290 291 291
245 247 249 250 254 255 255 255 256 259 262 263 264 265 266 264 262 264 266 269 271 268 266 265 267 268 271 271 272 275 276 277 279 281 281 282 282 284 285 287 289 289 290 290
245 246 249 250 252 255 255 256 258 261 263 264 263 264 266 265 266 265 267 268 269 270 268 268 269 271 273 274 275 275 276 278 278 281 283 283 283 284 285 287 289 290 291 291
245 247 249 250 252 254 256 257 260 262 262 263 264 265 265 265 266 267 267 268 269 270 271 271 271 274 276 276 277 278 278 278 279 281 283 284 283 284 286 287 287 289 290 291
244 247 249 250 252 254 256 258 260 261 261 264 265 267 268 268 270 269 266 266 269 271 271 271 272 274 276 276 277 278 278 280 281 282 283 284 284 285 286 287 287 288 289 290
244 247 249 250 253 255 257 259 260 261 263 265 266 267 268 269 270 271 270 269 268 269 270 271 273 275 276 275 276 277 279 280 281 282 283 285 285 286 287 288 289 289 290 290
244 246 248 251 253 255 257 259 261 262 264 266 269 269 269 270 271 271 271 271 270 271 273 273 274 276 277 276 276 276 278 280 281 283 285 285 286 287 288 289 290 290 291 291
243 245 248 252 254 256 258 260 261 263 265 267 269 270 271 271 272 272 272 273 273 273 274 274 274 275 276 277 278 279 280 281 282 284 285 286 286 287 288 289 290 291 292 292
243 246 249 253 255 257 258 259 261 263 265 267 269 270 272 272 273 273 272 273 273 274 274 273 274 275 276 277 279 280 281 282 283 285 286 287 288 288 289 289 290 291 293 293
246 248 250 253 255 257 258 259 261 263 265 268 270 272 274 274 273 274 274 274 274 274 275 275 275 276 277 278 279 280 281 283 284 286 287 288 288 289 290 290 291 292 293 293
248 250 251 253 254 257 258 259 260 263 266 268 270 272 273 274 274 274 274 275 275 275 276 277 277 277 277 278 280 281 281 283 285 286 288 289 290 290 291 291 292 292 293 294
249 250 252 254 256 257 258 259 261 264 266 268 270 271 272 273 274 275 276 276 276 276 277 277 277 278 279 280 281 282 282 284 285 287 288 290 290 291 291 292 293 293 294 294
250 252 254 256 258 259 260 261 263 265 267 268 269 269 271 273 274 275 275 276 276 276 276 278 279 279 280 281 283 283 284 285 286 287 289 291 292 293 293 293 294 295 295 295
251 253 255 256 258 260 262 264 265 267 268 268 269 270 271 272 273 274 274 275 275 276 277 279 280 281 282 283 284 285 286 287 287 288 290 292 293 293 293 294 295 296 296 296
251 253 254 256 259 261 262 265 267 268 269 270 270 271 271 272 272 272 273 274 275 276 278 279 280 281 282 283 284 286 287 289 289 290 291 292 293 294 295 295 295 296 297 297
253 255 256 257 259 261 263 266 268 269 269 270 271 271 271 271 272 272 272 274 276 277 279 280 281 281 282 283 285 287 288 289 290 291 292 293 293 294 296 296 296 297 297 298
254 256 258 259 260 261 263 266 268 269 269 270 271 271 271 271 271 271 273 275 276 278 279 280 281 282 283 285 286 287 288 289 291 292 292 292 293 295 296 296 297 297 297 297
254 256 257 258 260 262 263 265 266 268 269 270 271 272 272 272 273 275 276 277 278 279 281 281 282 283 284 286 287 288 289 290 292 292 292 293 294 295 296 296 297 297 297 298
Height
5826 5827 5828 5828 5829 5829 5830 5831 5832 5833 5833 5834 5834 5835 5836 5836 5837 5838 5839 5840 5841 5842 5842 5843 5844 5845 5845 5846 5847 5847 5848 5848 5849 5849 5849 5849 5849 5848 5848 5847 5847 5846 5845 5844
5824 5825 5825 5826 5827 5827 5828 5829 5829 5830 5831 5831 5832 5832 5833 5834 5835 5836 5836 5837 5838 5838 5839 5840 5840 5841 5842 5842 5843 5844 5844 5844 5844 5844 5844 5844 5844 5844 5843 5843 5842 5841 5840 5839
5821 5822 5822 5824 5825 5825 5826 5826 5827 5828 5829 5829 5830 5830 5831 5831 5832 5832 5833 5834 5834 5835 5836 5836 5837 5837 5838 5839 5839 5839 5840 5840 5840 5840 5840 5840 5840 5839 5839 5838 5837 5836 5835 5834
5817 5819 5819 5823 5822 5823 5823 5824 5824 5825 5825 5826 5827 5827 5828 5828 5829 5829 5830 5830 5831 5831 5832 5833 5833 5834 5834 5834 5835 5835 5835 5835 5835 5835 5835 5835 5835 5834 5833 5833 5832 5831 5830 5829
5813 5814 5815 5818 5819 5820 5820 5821 5822 5822 5822 5823 5823 5824 5824 5825 5825 5825 5826 5826 5827 5827 5828 5828 5829 5829 5830 5830 5830 5830 5830 5830 5831 5830 5830 5830 5829 5829 5828 5827 5826 5825 5824 5823
5809 5809 5811 5816 5816 5816 5818 5818 5819 5819 5819 5819 5820 5821 5822 5821 5821 5821 5821 5822 5822 5822 5823 5824 5824 5825 5825 5825 5826 5826 5825 5825 5825 5825 5825 5824 5824 5823 5823 5822 5821 5819 5818 5817
5804 5805 5807 5811 5811 5812 5814 5816 5815 5815 5815 5816 5816 5817 5817 5817 5817 5817 5817 5817 5817 5818 5819 5819 5820 5820 5820 5821 5821 5820 5820 5820 5820 5820 5819 5819 5818 5818 5817 5816 5815 5813 5812 5811
5798 5800 5804 5806 5806 5808 5809 5810 5810 5811 5811 5812 5813 5813 5813 5813 5813 5813 5813 5813 5813 5814 5814 5814 5814 5815 5815 5816 5815 5815 5815 5815 5815 5814 5814 5813 5813 5812 5811 5810 5808 5807 5806 5804
5794 5797 5799 5800 5801 5803 5804 5805 5805 5806 5807 5808 5808 5808 5808 5808 5809 5809 5809 5809 5809 5809 5809 5809 5809 5810 5810 5810 5810 5810 5810 5810 5809 5809 5808 5807 5806 5805 5804 5803 5802 5800 5799 5797
5788 5790 5792 5794 5796 5797 5798 5799 5800 5801 5802 5802 5803 5803 5803 5803 5803 5804 5804 5804 5804 5804 5804 5804 5804 5804 5804 5804 5804 5804 5804 5804 5803 5803 5802 5801 5800 5799 5798 5796 5795 5793 5792 5790
5781 5784 5786 5788 5789 5791 5792 5793 5794 5795 5796 5796 5797 5797 5798 5798 5798 5798 5798 5799 5798 5798 5799 5799 5799 5799 5799 5798 5798 5798 5798 5797 5797 5796 5795 5794 5793 5792 5790 5789 5787 5786 5784 5782
5774 5777 5779 5782 5783 5784 5785 5787 5787 5789 5790 5790 5791 5791 5792 5792 5792 5792 5792 5793 5792 5792 5792 5793 5792 5792 5792 5792 5792 5791 5791 5790 5789 5789 5788 5786 5785 5784 5782 5781 5779 5777 5775 5773
5768 5770 5772 5775 5776 5777 5779 5780 5781 5782 5783 5784 5784 5784 5785 5785 5785 5785 5786 5786 5786 5786 5786 5786 5786 5785 5785 5785 5785 5784 5784 5783 5782 5781 5780 5779 5777 5776 5774 5772 5770 5768 5766 5763
5760 5762 5765 5767 5769 5770 5772 5773 5774 5774 5775 5776 5777 5777 5777 5778 5778 5778 5778 5778 5778 5778 5779 5778 5778 5778 5777 5777 5777 5776 5776 5775 5774 5773 5771 5770 5768 5767 5765 5763 5761 5758 5756 5753
5752 5754 5757 5759 5761 5763 5764 5765 5766 5767 5768 5769 5769 5770 5770 5770 5770 5770 5771 5770 5770 5771 5771 5770 5770 5770 5769 5769 5768 5768 5767 5766 5765 5764 5762 5761 5759 5757 5755 5753 5751 5748 5745 5742
5743 5746 5748 5751 5753 5755 5756 5757 5759 5759 5760 5761 5761 5762 5762 5762 5762 5762 5762 5762 5762 5762 5762 5762 5762 5761 5761 5760 5760 5759 5758 5757 5756 5754 5753 5751 5749 5747 5745 5742 5740 5737 5734 5731
5734 5737 5740 5742 5744 5746 5748 5749 5750 5751 5752 5752 5753 5753 5753 5753 5754 5754 5754 5753 5753 5753 5753 5753 5752 5752 5751 5751 5750 5749 5749 5747 5746 5744 5743 5741 5738 5736 5734 5731 5729 5726 5723 5719
5725 5728 5731 5734 5736 5738 5739 5740 5741 5742 5743 5744 5744 5744 5744 5744 5744 5744 5744 5744 5744 5743 5743 5743 5742 5742 5741 5741 5740 5739 5738 5737 5736 5734 5732 5730 5727 5725 5722 5720 5717 5714 5710 5707
5717 5720 5722 5724 5727 5728 5730 5731 5732 5733 5734 5734 5735 5735 5735 5735 5734 5734 5734 5733 5733 5733 5733 5732 5732 5732 5731 5730 5729 5729 5727 5726 5725 5723 5720 5718 5716 5713 5710 5707 5704 5701 5697 5694
5708 5710 5713 5715 5717 5719 5721 5722 5723 5724 5724 5725 5725 5725 5725 5725 5724 5724 5723 5723 5722 5722 5722 5721 5721 5720 5720 5719 5718 5717 5716 5715 5713 5711 5709 5706 5703 5701 5698 5695 5691 5688 5684 5681
5699 5702 5704 5706 5708 5709 5711 5712 5713 5714 5715 5715 5715 5715 5715 5715 5714 5714 5713 5712 5712 5711 5710 5710 5710 5709 5709 5708 5707 5706 5705 5703 5701 5699 5697 5694 5691 5688 5685 5682 5678 5675 5671 5668
5690 5693 5695 5697 5698 5700 5701 5702 5703 5704 5704 5705 5705 5705 5705 5704 5704 5703 5702 5701 5701 5700 5699 5699 5699 5698 5697 5697 5695 5694 5693 5691 5689 5687 5684 5681 5678 5675 5672 5669 5666 5662 5658 5655
5681 5684 5686 5687 5689 5690 5691 5692 5693 5693 5694 5694 5694 5694 5694 5694 5693 5693 5692 5692 5690 5690 5689 5689 5688 5687 5686 5685 5684 5682 5680 5679 5677 5674 5672 5669 5666 5663 5660 5656 5653 5649 5646 5642
5672 5674 5676 5677 5679 5680 5681 5682 5682 5683 5683 5683 5683 5683 5683 5683 5682 5682 5682 5681 5681 5680 5679 5678 5677 5676 5675 5673 5672 5670 5668 5666 5664 5662 5659 5656 5653 5650 5647 5644 5641 5637 5633 5630
5662 5664 5666 5667 5668 5670 5671 5671 5672 5672 5672 5672 5672 5672 5672 5672 5672 5672 5671 5671 5670 5669 5668 5667 5666 5665 5663 5662 5660 5658 5656 5654 5652 5650 5647 5644 5641 5638 5635 5631 5628 5625 5621 5617
5653 5654 5656 5657 5658 5659 5660 5661 5661 5662 5662 5662 5662 5661 5661 5661 5661 5661 5661 5660 5659 5658 5657 5656 5655 5653 5652 5650 5649 5647 5644 5642 5640 5637 5634 5631 5629 5626 5622 5619 5616 5612 5609 5605
5643 5644 5646 5647 5649 5650 5651 5651 5652 5652 5652 5652 5652 5651 5651 5651 5651 5650 5650 5649 5648 5647 5646 5645 5643 5642 5641 5639 5637 5635 5632 5630 5627 5625 5622 5619 5616 5613 5610 5606 5603 5599 5596 5592